TimePST,TemperatureF,Dew PointF,Humidity,Sea Level PressureIn,VisibilityMPH,Wind Direction,Wind SpeedMPH,Gust SpeedMPH,PrecipitationIn,Events,Conditions,WindDirDegrees,DateUTC
12:56 AM,33.1,32.0,96,30.05,3.0,Calm,Calm,-,0.00,,Mostly Cloudy,0,2013-01-26 08:56:00
1:06 AM,33.8,33.8,100,30.02,2.5,WNW,3.5,-,N/A,,Overcast,300,2013-01-26 09:06:00
1:56 AM,33.1,33.1,100,30.03,3.0,Calm,Calm,-,N/A,,Overcast,0,2013-01-26 09:56:00
2:54 AM,33.8,33.8,100,29.98,2.5,Calm,Calm,-,N/A,,Mostly Cloudy,0,2013-01-26 10:54:00
2:56 AM,33.1,33.1,100,30.00,2.5,Calm,Calm,-,N/A,,Mostly Cloudy,0,2013-01-26 10:56:00
3:37 AM,32.0,30.2,93,29.97,1.8,SE,4.6,-,N/A,,Scattered Clouds,140,2013-01-26 11:37:00
3:50 AM,30.2,30.2,100,29.97,1.0,Calm,Calm,-,N/A,,Mist,0,2013-01-26 11:50:00
3:56 AM,30.9,30.9,100,29.99,0.8,Calm,Calm,-,N/A,,Mist,0,2013-01-26 11:56:00
4:01 AM,30.2,30.2,100,29.96,1.0,Calm,Calm,-,N/A,,Scattered Clouds,0,2013-01-26 12:01:00
4:13 AM,30.2,30.2,100,29.96,1.5,Calm,Calm,-,N/A,,Mostly Cloudy,0,2013-01-26 12:13:00
4:30 AM,32.0,30.2,93,29.97,0.8,Calm,Calm,-,N/A,,Overcast,0,2013-01-26 12:30:00
4:46 AM,32.0,32.0,100,29.96,1.5,North,4.6,-,N/A,,Overcast,10,2013-01-26 12:46:00
4:53 AM,33.8,32.0,93,29.96,3.0,NE,3.5,-,N/A,,Overcast,50,2013-01-26 12:53:00
4:56 AM,33.1,32.0,96,29.99,4.0,NE,3.5,-,N/A,,Overcast,50,2013-01-26 12:56:00
5:41 AM,33.8,33.8,100,29.95,2.5,NNE,4.6,-,N/A,,Overcast,30,2013-01-26 13:41:00
5:56 AM,33.1,33.1,100,29.99,3.0,Calm,Calm,-,N/A,,Overcast,0,2013-01-26 13:56:00
6:56 AM,34.0,33.1,96,29.98,3.0,NNE,4.6,-,N/A,,Overcast,20,2013-01-26 14:56:00
7:32 AM,33.8,33.8,100,29.94,2.0,NE,4.6,-,N/A,,Overcast,50,2013-01-26 15:32:00
7:41 AM,33.8,33.8,100,29.94,1.8,Calm,Calm,-,N/A,,Overcast,0,2013-01-26 15:41:00
7:56 AM,34.0,34.0,100,29.96,2.0,Calm,Calm,-,N/A,,Overcast,0,2013-01-26 15:56:00
8:12 AM,33.8,33.8,100,29.93,1.8,Calm,Calm,-,N/A,,Overcast,0,2013-01-26 16:12:00
8:31 AM,33.8,33.8,100,29.93,1.0,West,3.5,-,N/A,,Mostly Cloudy,260,2013-01-26 16:31:00
8:47 AM,33.8,33.8,100,29.93,0.8,Calm,Calm,-,N/A,,Mostly Cloudy,0,2013-01-26 16:47:00
8:56 AM,35.1,34.0,96,29.96,0.2,Calm,Calm,-,N/A,Fog,Fog,0,2013-01-26 16:56:00
9:05 AM,35.6,33.8,93,29.93,1.0,Calm,Calm,-,N/A,,Mostly Cloudy,0,2013-01-26 17:05:00
9:22 AM,35.6,35.6,100,29.92,2.0,East,4.6,-,N/A,,Partly Cloudy,90,2013-01-26 17:22:00
9:33 AM,37.4,35.6,93,29.92,5.0,ESE,5.8,-,N/A,,Clear,120,2013-01-26 17:33:00
9:56 AM,39.0,36.0,89,29.94,10.0,SSE,3.5,-,N/A,,Partly Cloudy,150,2013-01-26 17:56:00
10:56 AM,42.1,36.0,79,29.92,9.0,NW,3.5,-,N/A,,Partly Cloudy,320,2013-01-26 18:56:00
11:56 AM,43.0,36.0,76,29.87,10.0,Calm,Calm,-,N/A,,Partly Cloudy,0,2013-01-26 19:56:00
12:56 PM,45.0,37.0,74,29.84,10.0,NNW,3.5,-,N/A,,Partly Cloudy,340,2013-01-26 20:56:00
1:56 PM,46.9,37.0,68,29.82,10.0,North,5.8,-,N/A,,Clear,360,2013-01-26 21:56:00
2:56 PM,48.0,37.0,66,29.82,10.0,NNW,4.6,-,N/A,,Clear,340,2013-01-26 22:56:00
3:56 PM,43.0,36.0,76,29.82,10.0,NNE,4.6,-,N/A,,Mostly Cloudy,30,2013-01-26 23:56:00
4:56 PM,37.9,34.0,86,29.81,7.0,NNE,4.6,-,N/A,,Clear,30,2013-01-27 00:56:00
5:56 PM,36.0,33.1,89,29.83,7.0,WNW,6.9,-,0.00,,Mostly Cloudy,290,2013-01-27 01:56:00
6:56 PM,36.0,34.0,93,29.84,8.0,South,5.8,-,0.00,,Overcast,170,2013-01-27 02:56:00
7:56 PM,35.1,34.0,96,29.84,7.0,NNW,3.5,-,0.02,,Overcast,330,2013-01-27 03:56:00
8:25 PM,35.6,33.8,93,29.84,10.0,West,3.5,-,0.00,Rain,Light Rain,280,2013-01-27 04:25:00
8:34 PM,35.6,33.8,93,29.84,10.0,NW,8.1,-,0.00,,Overcast,310,2013-01-27 04:34:00
8:41 PM,35.6,33.8,93,29.84,10.0,WNW,9.2,16.1,0.00,,Overcast,300,2013-01-27 04:41:00
8:56 PM,34.0,33.1,96,29.86,3.0,WNW,11.5,-,0.00,,Overcast,290,2013-01-27 04:56:00
9:56 PM,32.0,30.9,96,29.87,10.0,NW,12.7,-,0.00,,Overcast,320,2013-01-27 05:56:00
10:56 PM,30.9,28.9,92,29.88,10.0,NW,11.5,-,N/A,,Scattered Clouds,320,2013-01-27 06:56:00
11:56 PM,28.9,27.0,92,29.88,10.0,NW,12.7,-,N/A,,Scattered Clouds,310,2013-01-27 07:56:00